This is the latest recevied weather packets stored in our database for station/object K6CED. If no packets are shown the sender has not sent any weather packets the latest 10 day(s).
| Time | Temp. | Humidity | Pressure | Rain* | Wind** | Luminosity | Snow |
|---|---|---|---|---|---|---|---|
| 1777685885 | 21.67° C | 63% | 1014.1 hPa | 0 mm | - | 50 W/m² | - |
| 1777685580 | 21.67° C | 63% | 1013.8 hPa | 0 mm | - | 60 W/m² | - |
| 1777685277 | 22.22° C | 63% | 1013.7 hPa | 0 mm | - | 69 W/m² | - |
| 1777684975 | 22.22° C | 62% | 1013.7 hPa | 0 mm | - | 78 W/m² | - |
| 1777684672 | 22.22° C | 62% | 1013.7 hPa | 0 mm | - | 89 W/m² | - |
| 1777684368 | 22.22° C | 62% | 1013.7 hPa | 0 mm | - | 100 W/m² | - |
| 1777684066 | 22.22° C | 62% | 1013.7 hPa | 0 mm | - | 112 W/m² | - |
| 1777683762 | 22.78° C | 61% | 1013.5 hPa | 0 mm | - | 127 W/m² | - |
| 1777683459 | 22.78° C | 61% | 1013.6 hPa | 0 mm | - | 142 W/m² | - |
| 1777683157 | 23.33° C | 60% | 1013.7 hPa | 0 mm | - | 158 W/m² | - |
| 1777682853 | 23.33° C | 59% | 1013.7 hPa | 0 mm | - | 176 W/m² | - |
| 1777682550 | 23.33° C | 60% | 1013.7 hPa | 0 mm | - | 187 W/m² | - |
| 1777682248 | 23.33° C | 59% | 1013.6 hPa | 0 mm | - | 207 W/m² | - |
| 1777681945 | 23.33° C | 59% | 1013.7 hPa | 0 mm | - | 222 W/m² | - |
| 1777681640 | 23.33° C | 60% | 1013.6 hPa | 0 mm | - | 239 W/m² | - |
| 1777681339 | 24.44° C | 57% | 1013.8 hPa | 0 mm | - | 259 W/m² | - |
| 1777681035 | 24.44° C | 57% | 1013.6 hPa | 0 mm | - | 276 W/m² | - |
| 1777680734 | 24.44° C | 56% | 1013.5 hPa | 0 mm | - | 296 W/m² | - |
| 1777680430 | 25° C | 56% | 1013.4 hPa | 0 mm | - | 309 W/m² | - |
| 1777680128 | 25° C | 55% | 1013.5 hPa | 0 mm | - | 328 W/m² | - |
| 1777679824 | 25° C | 56% | 1013.3 hPa | 0 mm | - | 348 W/m² | - |
| 1777679520 | 25.56° C | 54% | 1013.5 hPa | 0 mm | - | 365 W/m² | - |
| 1777679216 | 25.56° C | 55% | 1013.4 hPa | 0 mm | - | 382 W/m² | - |
| 1777678913 | 25.56° C | 54% | 1013.5 hPa | 0 mm | - | 401 W/m² | - |
| 1777678611 | 25° C | 55% | 1013.6 hPa | 0 mm | - | 417 W/m² | - |
* Rain latest hour (hover to see other rain measurements)
** Current wind speed in m/s (hover to see current wind gust speed)